RYR3HM LDDU-LOWW

Flight info

Callsign RYR3HM
Flight time 1h 5m
Altitude 36000
Route AMUGO DCT UNIPA DCT OBUTI OBUTI2W
Aircraft A320/M-SDE3FGHIRWY/LB1

Departure

Time 2026-04-25 17:24
Airport Dubrovnik Ruđer Bošković Airport (LDDU)

Arrival

Time 2026-04-25 18:30
Airport Vienna International Airport (LOWW)
Time Latitude Longitude Altitude Speed Heading
2026-04-25 17:03 42.56188 18.26037 534 ft 0 kts 208°
2026-04-25 17:14 42.56195 18.26042 534 ft 2 kts 208°
2026-04-25 17:14 42.56212 18.26055 534 ft 3 kts 208°
2026-04-25 17:15 42.56230 18.26067 534 ft 3 kts 221°
2026-04-25 17:15 42.56239 18.26084 534 ft 3 kts 274°
2026-04-25 17:15 42.56237 18.26099 534 ft 1 kts 298°
2026-04-25 17:15 42.56230 18.26117 534 ft 2 kts 298°
2026-04-25 17:16 42.56228 18.26120 534 ft 0 kts 298°
2026-04-25 17:18 42.56233 18.26109 534 ft 4 kts 298°
2026-04-25 17:18 42.56254 18.26055 534 ft 9 kts 298°
2026-04-25 17:18 42.56294 18.25957 534 ft 14 kts 298°
2026-04-25 17:18 42.56346 18.25825 534 ft 17 kts 299°
2026-04-25 17:19 42.56406 18.25675 534 ft 19 kts 298°
2026-04-25 17:19 42.56475 18.25504 534 ft 22 kts 298°
2026-04-25 17:19 42.56549 18.25319 534 ft 23 kts 298°
2026-04-25 17:19 42.56625 18.25126 534 ft 24 kts 298°
2026-04-25 17:20 42.56694 18.24950 533 ft 14 kts 298°
2026-04-25 17:20 42.56730 18.24858 534 ft 11 kts 298°
2026-04-25 17:20 42.56769 18.24761 534 ft 9 kts 298°
2026-04-25 17:20 42.56782 18.24730 534 ft 0 kts 301°
2026-04-25 17:21 42.56787 18.24719 534 ft 4 kts 304°
2026-04-25 17:21 42.56821 18.24680 534 ft 8 kts 335°
2026-04-25 17:22 42.56885 18.24682 533 ft 10 kts 19°
2026-04-25 17:22 42.56920 18.24722 533 ft 10 kts 55°
2026-04-25 17:22 42.56927 18.24833 533 ft 9 kts 111°
2026-04-25 17:22 42.56913 18.24867 533 ft 0 kts 118°
2026-04-25 17:23 42.56886 18.24936 533 ft 36 kts 118°
2026-04-25 17:24 42.56634 18.25572 535 ft 110 kts 118°
2026-04-25 17:24 42.56181 18.26710 536 ft 165 kts 118°
2026-04-25 17:24 42.55597 18.28165 944 ft 180 kts 119°
2026-04-25 17:24 42.54999 18.29647 1692 ft 178 kts 118°
2026-04-25 17:25 42.54394 18.31180 2185 ft 194 kts 117°
2026-04-25 17:25 42.53693 18.32877 2508 ft 219 kts 127°
2026-04-25 17:25 42.52419 18.34015 3105 ft 227 kts 171°
2026-04-25 17:25 42.50891 18.33728 3871 ft 226 kts 212°
2026-04-25 17:26 42.49718 18.32317 4673 ft 228 kts 227°
2026-04-25 17:26 42.48411 18.31087 5400 ft 233 kts 204°
2026-04-25 17:26 42.46909 18.30231 6211 ft 236 kts 197°
2026-04-25 17:26 42.45320 18.29620 6972 ft 239 kts 193°
2026-04-25 17:27 42.43693 18.29115 7733 ft 241 kts 192°
2026-04-25 17:27 42.42040 18.28628 8510 ft 245 kts 194°
2026-04-25 17:27 42.40513 18.27635 9252 ft 247 kts 223°
2026-04-25 17:27 42.40104 18.27075 9505 ft 247 kts 233°
2026-04-25 17:28 42.39420 18.23307 10234 ft 272 kts 284°
2026-04-25 17:28 42.40001 18.20782 10681 ft 288 kts 289°
2026-04-25 17:28 42.40632 18.18185 11416 ft 293 kts 289°
2026-04-25 17:28 42.41264 18.15550 12210 ft 296 kts 289°
2026-04-25 17:29 42.41894 18.12888 13010 ft 299 kts 289°
2026-04-25 17:29 42.42538 18.10147 13416 ft 317 kts 289°
2026-04-25 17:29 42.43226 18.07206 13626 ft 339 kts 289°
2026-04-25 17:29 42.43943 18.04112 14124 ft 348 kts 289°
2026-04-25 17:30 42.44672 18.00963 14758 ft 352 kts 289°
2026-04-25 17:30 42.45408 17.97779 15427 ft 355 kts 289°
2026-04-25 17:30 42.46148 17.94572 16101 ft 358 kts 289°
2026-04-25 17:30 42.46894 17.91338 16768 ft 361 kts 289°
2026-04-25 17:31 42.47646 17.88076 17426 ft 364 kts 289°
2026-04-25 17:31 42.48436 17.84799 18070 ft 367 kts 294°
2026-04-25 17:31 42.49749 17.81841 18637 ft 369 kts 311°
2026-04-25 17:31 42.51696 17.79591 19195 ft 371 kts 327°
2026-04-25 17:32 42.53894 17.77731 19776 ft 374 kts 328°
2026-04-25 17:32 42.56111 17.75871 20350 ft 376 kts 328°
2026-04-25 17:32 42.58348 17.73995 20924 ft 379 kts 328°
2026-04-25 17:32 42.60599 17.72099 21479 ft 383 kts 328°
2026-04-25 17:33 42.62866 17.70182 22034 ft 386 kts 327°
2026-04-25 17:33 42.65153 17.68246 22593 ft 389 kts 327°
2026-04-25 17:33 42.67455 17.66296 23143 ft 391 kts 327°
2026-04-25 17:33 42.69771 17.64332 23659 ft 394 kts 327°
2026-04-25 17:34 42.72105 17.62352 24080 ft 397 kts 327°
2026-04-25 17:34 42.74458 17.60355 24492 ft 400 kts 327°
2026-04-25 17:34 42.76824 17.58339 24897 ft 403 kts 327°
2026-04-25 17:34 42.79206 17.56308 25285 ft 406 kts 327°
2026-04-25 17:35 42.81606 17.54261 25665 ft 408 kts 327°
2026-04-25 17:35 42.84024 17.52199 26040 ft 411 kts 327°
2026-04-25 17:35 42.86454 17.50124 26410 ft 414 kts 327°
2026-04-25 17:35 42.88902 17.48031 26799 ft 416 kts 327°
2026-04-25 17:36 42.91363 17.45924 27170 ft 419 kts 327°
2026-04-25 17:36 42.93838 17.43801 27523 ft 422 kts 327°
2026-04-25 17:36 42.96328 17.41665 27868 ft 424 kts 327°
2026-04-25 17:36 42.98835 17.39517 28217 ft 427 kts 326°
2026-04-25 17:37 43.01359 17.37357 28560 ft 429 kts 327°
2026-04-25 17:37 43.03898 17.35183 28876 ft 432 kts 327°
2026-04-25 17:37 43.06449 17.32990 29194 ft 434 kts 326°
2026-04-25 17:37 43.09013 17.30780 29513 ft 437 kts 326°
2026-04-25 17:38 43.11589 17.28554 29834 ft 439 kts 326°
2026-04-25 17:38 43.12425 17.27830 29930 ft 439 kts 326°
2026-04-25 17:38 43.16773 17.24067 30377 ft 443 kts 326°
2026-04-25 17:38 43.19381 17.21812 30627 ft 444 kts 326°
2026-04-25 17:39 43.21999 17.19548 30872 ft 446 kts 326°
2026-04-25 17:39 43.24625 17.17273 31122 ft 447 kts 326°
2026-04-25 17:39 43.27258 17.14990 31378 ft 447 kts 326°
2026-04-25 17:39 43.29886 17.12712 31698 ft 446 kts 326°
2026-04-25 17:40 43.32508 17.10438 32038 ft 445 kts 326°
2026-04-25 17:40 43.35117 17.08169 32376 ft 443 kts 326°
2026-04-25 17:40 43.37716 17.05903 32697 ft 442 kts 326°
2026-04-25 17:40 43.40277 17.03671 33025 ft 441 kts 325°
2026-04-25 17:41 43.42866 17.01412 33348 ft 440 kts 325°
2026-04-25 17:41 43.45446 16.99157 33677 ft 439 kts 325°
2026-04-25 17:41 43.48026 16.96900 33972 ft 439 kts 325°
2026-04-25 17:41 43.50595 16.94647 34262 ft 438 kts 325°
2026-04-25 17:42 43.53159 16.92395 34547 ft 437 kts 325°
2026-04-25 17:42 43.55720 16.90142 34830 ft 436 kts 325°
2026-04-25 17:42 43.58270 16.87899 35108 ft 435 kts 325°
2026-04-25 17:42 43.60817 16.85658 35374 ft 434 kts 325°
2026-04-25 17:43 43.63358 16.83426 35632 ft 433 kts 325°
2026-04-25 17:43 43.65896 16.81194 35892 ft 432 kts 325°
2026-04-25 17:43 43.68430 16.78964 36020 ft 431 kts 325°
2026-04-25 17:43 43.70952 16.76739 36042 ft 429 kts 325°
2026-04-25 17:44 43.75974 16.72292 36047 ft 428 kts 325°
2026-04-25 17:44 43.80984 16.67845 36040 ft 427 kts 325°
2026-04-25 17:45 43.84333 16.64876 36035 ft 427 kts 325°
2026-04-25 17:45 43.90991 16.58955 36038 ft 427 kts 325°
2026-04-25 17:46 43.95995 16.54500 36038 ft 427 kts 325°
2026-04-25 17:46 44.01073 16.50220 36045 ft 429 kts 332°
2026-04-25 17:47 44.06837 16.47955 36041 ft 436 kts 351°
2026-04-25 17:47 44.12908 16.47433 36034 ft 437 kts 353°
2026-04-25 17:48 44.20993 16.46742 36046 ft 438 kts 353°
2026-04-25 17:49 44.27068 16.46218 36042 ft 437 kts 353°
2026-04-25 17:49 44.34121 16.45610 36042 ft 437 kts 353°
2026-04-25 17:50 44.40190 16.45086 36048 ft 437 kts 352°
2026-04-25 17:50 44.45268 16.44649 36037 ft 436 kts 352°
2026-04-25 17:51 44.51327 16.44122 36028 ft 436 kts 352°
2026-04-25 17:51 44.57380 16.43593 36024 ft 436 kts 352°
2026-04-25 17:52 44.63428 16.43076 36018 ft 435 kts 352°
2026-04-25 17:52 44.69473 16.42549 36006 ft 435 kts 352°
2026-04-25 17:53 44.75477 16.42022 35998 ft 435 kts 352°
2026-04-25 17:53 44.81561 16.41487 36006 ft 435 kts 352°
2026-04-25 17:54 44.87573 16.40960 36006 ft 436 kts 352°
2026-04-25 17:54 44.93624 16.40427 35994 ft 436 kts 352°
2026-04-25 17:55 44.99712 16.39886 36002 ft 436 kts 352°
2026-04-25 17:55 45.05722 16.39359 36003 ft 435 kts 352°
2026-04-25 17:56 45.11764 16.38828 35991 ft 435 kts 352°
2026-04-25 17:56 45.17800 16.38289 35988 ft 434 kts 351°
2026-04-25 17:57 45.23834 16.37759 35990 ft 435 kts 351°
2026-04-25 17:57 45.29868 16.37226 35980 ft 435 kts 351°
2026-04-25 17:58 45.35906 16.36681 35977 ft 435 kts 351°
2026-04-25 17:58 45.41942 16.36136 35985 ft 435 kts 351°
2026-04-25 17:59 45.47986 16.35597 35725 ft 435 kts 351°
2026-04-25 17:59 45.51009 16.35325 35530 ft 435 kts 351°
2026-04-25 17:59 45.54030 16.35053 35325 ft 436 kts 351°
2026-04-25 17:59 45.57060 16.34779 35126 ft 436 kts 351°
2026-04-25 18:00 45.60092 16.34507 34930 ft 437 kts 351°
2026-04-25 18:00 45.63123 16.34238 34735 ft 437 kts 351°
2026-04-25 18:00 45.66164 16.33964 34541 ft 438 kts 351°
2026-04-25 18:00 45.69205 16.33688 34349 ft 438 kts 351°
2026-04-25 18:01 45.72251 16.33414 34155 ft 439 kts 351°
2026-04-25 18:01 45.75299 16.33136 33953 ft 440 kts 351°
2026-04-25 18:01 45.78357 16.32854 33746 ft 440 kts 351°
2026-04-25 18:01 45.81414 16.32573 33550 ft 441 kts 351°
2026-04-25 18:02 45.84475 16.32289 33335 ft 441 kts 351°
2026-04-25 18:02 45.87533 16.32009 33155 ft 440 kts 351°
2026-04-25 18:02 45.90595 16.31726 33159 ft 442 kts 351°
2026-04-25 18:03 45.96698 16.31174 33103 ft 443 kts 351°
2026-04-25 18:03 45.99807 16.30898 32888 ft 441 kts 351°
2026-04-25 18:03 46.02870 16.30626 32668 ft 440 kts 351°
2026-04-25 18:03 46.05917 16.30354 32434 ft 438 kts 351°
2026-04-25 18:04 46.08949 16.30080 32202 ft 436 kts 351°
2026-04-25 18:04 46.11932 16.29802 31979 ft 435 kts 351°
2026-04-25 18:04 46.14987 16.29515 31686 ft 433 kts 351°
2026-04-25 18:04 46.17949 16.29240 31384 ft 431 kts 351°
2026-04-25 18:05 46.20937 16.28968 31084 ft 429 kts 351°
2026-04-25 18:05 46.23906 16.28700 30806 ft 427 kts 351°
2026-04-25 18:05 46.26864 16.28429 30517 ft 425 kts 351°
2026-04-25 18:05 46.29807 16.28155 30223 ft 423 kts 351°
2026-04-25 18:06 46.32741 16.27882 29913 ft 422 kts 351°
2026-04-25 18:06 46.35664 16.27612 29570 ft 420 kts 351°
2026-04-25 18:06 46.38559 16.27244 29235 ft 414 kts 346°
2026-04-25 18:06 46.41393 16.26572 28906 ft 412 kts 346°
2026-04-25 18:07 46.44218 16.25898 28589 ft 410 kts 346°
2026-04-25 18:07 46.47030 16.25233 28269 ft 409 kts 346°
2026-04-25 18:07 46.49827 16.24577 27944 ft 407 kts 346°
2026-04-25 18:07 46.52613 16.23922 27626 ft 404 kts 346°
2026-04-25 18:08 46.55385 16.23269 27307 ft 402 kts 346°
2026-04-25 18:08 46.58141 16.22616 26997 ft 400 kts 346°
2026-04-25 18:08 46.60882 16.21966 26690 ft 398 kts 346°
2026-04-25 18:08 46.63611 16.21314 26387 ft 396 kts 346°
2026-04-25 18:09 46.66327 16.20662 26116 ft 394 kts 346°
2026-04-25 18:09 46.69019 16.20017 25809 ft 389 kts 346°
2026-04-25 18:09 46.71680 16.19383 25514 ft 386 kts 346°
2026-04-25 18:09 46.73431 16.18966 25316 ft 384 kts 346°
2026-04-25 18:10 46.76944 16.18127 24933 ft 382 kts 346°
2026-04-25 18:10 46.79560 16.17500 24648 ft 380 kts 346°
2026-04-25 18:10 46.82162 16.16874 24362 ft 378 kts 346°
2026-04-25 18:10 46.84751 16.16251 24081 ft 377 kts 346°
2026-04-25 18:11 46.87334 16.15630 23810 ft 375 kts 346°
2026-04-25 18:11 46.89903 16.15013 23534 ft 374 kts 347°
2026-04-25 18:11 46.92464 16.14400 23202 ft 372 kts 347°
2026-04-25 18:11 46.95011 16.13790 22875 ft 370 kts 347°
2026-04-25 18:12 46.97552 16.13180 22558 ft 368 kts 347°
2026-04-25 18:12 47.00076 16.12573 22234 ft 367 kts 347°
2026-04-25 18:12 47.02586 16.11968 21917 ft 365 kts 347°
2026-04-25 18:12 47.05084 16.11362 21604 ft 363 kts 347°
2026-04-25 18:13 47.07572 16.10757 21290 ft 361 kts 347°
2026-04-25 18:13 47.10047 16.10153 21002 ft 360 kts 347°
2026-04-25 18:13 47.12516 16.09555 20699 ft 359 kts 347°
2026-04-25 18:14 47.17392 16.08376 20106 ft 356 kts 347°
2026-04-25 18:14 47.19829 16.07786 19809 ft 354 kts 347°
2026-04-25 18:14 47.22255 16.07195 19518 ft 353 kts 347°
2026-04-25 18:14 47.24668 16.06607 19232 ft 351 kts 347°
2026-04-25 18:15 47.27077 16.06021 18938 ft 350 kts 347°
2026-04-25 18:15 47.29471 16.05435 18631 ft 348 kts 347°
2026-04-25 18:15 47.31855 16.04865 18346 ft 346 kts 349°
2026-04-25 18:15 47.34261 16.04958 18003 ft 350 kts
2026-04-25 18:16 47.36613 16.05901 17658 ft 350 kts 12°
2026-04-25 18:16 47.38944 16.06907 17319 ft 348 kts 12°
2026-04-25 18:16 47.43560 16.08928 16645 ft 344 kts 12°
2026-04-25 18:17 47.45843 16.09926 16314 ft 341 kts 12°
2026-04-25 18:17 47.48114 16.10915 15976 ft 339 kts 12°
2026-04-25 18:17 47.50372 16.11897 15626 ft 337 kts 12°
2026-04-25 18:17 47.52617 16.12874 15283 ft 336 kts 12°
2026-04-25 18:18 47.54851 16.13848 14910 ft 334 kts 12°
2026-04-25 18:18 47.57069 16.14816 14549 ft 332 kts 12°
2026-04-25 18:18 47.59281 16.15783 14188 ft 331 kts 12°
2026-04-25 18:18 47.61482 16.16744 13833 ft 329 kts 12°
2026-04-25 18:19 47.63603 16.18014 13429 ft 333 kts 27°
2026-04-25 18:19 47.65388 16.20241 12561 ft 341 kts 48°
2026-04-25 18:19 47.66670 16.23210 11684 ft 342 kts 56°
2026-04-25 18:19 47.67854 16.26206 11074 ft 332 kts 57°
2026-04-25 18:20 47.69007 16.29149 10423 ft 328 kts 57°
2026-04-25 18:20 47.70138 16.32035 10168 ft 315 kts 57°
2026-04-25 18:20 47.71222 16.34792 9810 ft 306 kts 57°
2026-04-25 18:20 47.72289 16.37489 9639 ft 302 kts 57°
2026-04-25 18:21 47.73357 16.40182 9397 ft 304 kts 57°
2026-04-25 18:21 47.74436 16.42896 8930 ft 303 kts 57°
2026-04-25 18:21 47.75492 16.45563 8325 ft 298 kts 57°
2026-04-25 18:21 47.76522 16.48169 7976 ft 283 kts 56°
2026-04-25 18:22 47.77477 16.50597 7768 ft 264 kts 56°
2026-04-25 18:22 47.77776 16.51357 7638 ft 261 kts 56°
2026-04-25 18:22 47.79294 16.55191 6808 ft 254 kts 56°
2026-04-25 18:22 47.80186 16.57442 6271 ft 252 kts 56°
2026-04-25 18:23 47.81069 16.59684 5738 ft 248 kts 55°
2026-04-25 18:23 47.81896 16.61795 5532 ft 232 kts 55°
2026-04-25 18:23 47.82702 16.63848 5098 ft 230 kts 55°
2026-04-25 18:23 47.83584 16.65823 4639 ft 224 kts 42°
2026-04-25 18:24 47.84767 16.67224 4473 ft 215 kts 22°
2026-04-25 18:24 47.86157 16.67965 4347 ft 210 kts
2026-04-25 18:24 47.87593 16.68014 4238 ft 205 kts 349°
2026-04-25 18:24 47.88965 16.67502 4143 ft 203 kts 342°
2026-04-25 18:25 47.90316 16.66936 4050 ft 201 kts 342°
2026-04-25 18:25 47.91658 16.66374 3955 ft 198 kts 343°
2026-04-25 18:25 47.92949 16.65833 3779 ft 189 kts 343°
2026-04-25 18:25 47.94194 16.65312 3526 ft 183 kts 340°
2026-04-25 18:26 47.95406 16.64802 3304 ft 180 kts 341°
2026-04-25 18:26 47.96598 16.64301 3071 ft 174 kts 341°
2026-04-25 18:26 47.97702 16.63840 2860 ft 160 kts 339°
2026-04-25 18:26 47.98752 16.63398 2646 ft 154 kts 339°
2026-04-25 18:27 47.99773 16.62968 2447 ft 152 kts 339°
2026-04-25 18:27 48.00778 16.62545 2237 ft 145 kts 338°
2026-04-25 18:27 48.01720 16.62150 2051 ft 137 kts 337°
2026-04-25 18:27 48.02625 16.61768 1872 ft 134 kts 337°
2026-04-25 18:28 48.03515 16.61392 1699 ft 132 kts 337°
2026-04-25 18:28 48.04399 16.61019 1520 ft 131 kts 336°
2026-04-25 18:28 48.05280 16.60657 1340 ft 132 kts 338°
2026-04-25 18:29 48.07045 16.59917 1005 ft 133 kts 339°
2026-04-25 18:29 48.07936 16.59532 839 ft 136 kts 339°
2026-04-25 18:30 48.10168 16.58581 618 ft 54 kts 345°
2026-04-25 18:30 48.10424 16.58474 623 ft 33 kts 343°
2026-04-25 18:30 48.10635 16.58369 609 ft 31 kts 334°
2026-04-25 18:30 48.10783 16.58201 609 ft 20 kts 314°
2026-04-25 18:31 48.10866 16.58073 615 ft 14 kts 314°
2026-04-25 18:31 48.10889 16.58038 617 ft 3 kts 314°
2026-04-25 18:31 48.10903 16.58018 609 ft 3 kts 318°
2026-04-25 18:31 48.10918 16.58002 617 ft 3 kts 326°
2026-04-25 18:32 48.10931 16.57990 609 ft 2 kts 329°
2026-04-25 18:32 48.10937 16.57985 609 ft 1 kts 331°
2026-04-25 18:32 48.10950 16.57976 612 ft 3 kts 335°
2026-04-25 18:32 48.10980 16.57960 618 ft 8 kts 341°
2026-04-25 18:33 48.11053 16.57929 614 ft 13 kts 342°
2026-04-25 18:33 48.11120 16.57832 618 ft 15 kts 296°
2026-04-25 18:33 48.11168 16.57684 613 ft 17 kts 296°
2026-04-25 18:33 48.11222 16.57518 617 ft 19 kts 296°
2026-04-25 18:34 48.11281 16.57336 614 ft 20 kts 296°
2026-04-25 18:34 48.11345 16.57140 609 ft 22 kts 296°
2026-04-25 18:34 48.11411 16.56934 612 ft 23 kts 295°
2026-04-25 18:34 48.11483 16.56719 617 ft 24 kts 296°
2026-04-25 18:35 48.11554 16.56498 614 ft 24 kts 296°
2026-04-25 18:35 48.11616 16.56306 611 ft 15 kts 296°
2026-04-25 18:35 48.11666 16.56155 618 ft 17 kts 296°
2026-04-25 18:35 48.11694 16.56069 612 ft 14 kts 296°
2026-04-25 18:36 48.11753 16.55888 620 ft 13 kts 296°
2026-04-25 18:36 48.11818 16.55848 612 ft 1 kts 18°
2026-04-25 18:36 48.11824 16.55850 615 ft 1 kts 18°
2026-04-25 18:36 48.11829 16.55853 616 ft 0 kts 21°
2026-04-25 18:37 48.11847 16.55865 616 ft 5 kts 25°
2026-04-25 18:37 48.11887 16.55895 615 ft 6 kts 26°
2026-04-25 18:37 48.11921 16.55855 616 ft 9 kts 290°
2026-04-25 18:37 48.11934 16.55811 623 ft 4 kts 296°
2026-04-25 18:38 48.11938 16.55800 621 ft 0 kts 296°